WetterOnline ( https://www.wetteronline.de )

Wetter aktuell Isny

Aktuelles Wetter: Leutkirch-Herlazhofen (671m)

6-stündlich | Neueste Meldungen
Ortszeit Temperatur Wetter
Di, 18.06. 2:00 11.3° C fast wolkenlos
Mo, 17.06. 20:00 18.3° C bewölkt
Mo, 17.06. 14:00 22.6° C wolkig
Mo, 17.06. 8:00 15.1° C wolkig
Mo, 17.06. 2:00 12.4° C bedeckt
So, 16.06. 20:00 19.2° C bewölkt
So, 16.06. 14:00 19.0° C wolkig
So, 16.06. 8:00 12.7° C bedeckt
Ortszeit Temperatur Wetter
Di, 18.06. 4:30 13.3° C wolkig
Di, 18.06. 4:20 13.3° C wolkig
Di, 18.06. 4:10 13.4° C bewölkt
Di, 18.06. 4:00 13.5° C bedeckt
Di, 18.06. 3:50 13.5° C bedeckt
Di, 18.06. 3:40 13.3° C bedeckt
Di, 18.06. 3:30 13.1° C leichter Regen
Di, 18.06. 3:00 11.3° C Nebel
Di, 18.06. 2:30 11.4° C Nebel
Di, 18.06. 2:00 11.3° C fast wolkenlos
Di, 18.06. 1:30 11.8° C wolkig
Ortszeit Relative Feuchte Sichtweite
Di, 18.06. 2:00 98% 24 km
Mo, 17.06. 20:00 71% >70 km
Mo, 17.06. 14:00 56% 35 km
Mo, 17.06. 8:00 87% 55 km
Mo, 17.06. 2:00 94% 50 km
So, 16.06. 20:00 61% >70 km
So, 16.06. 14:00 54% >70 km
So, 16.06. 8:00 90% 60 km
Ortszeit Relative Feuchte Sichtweite
Di, 18.06. 4:30 97% 35 km
Di, 18.06. 4:20 97% -
Di, 18.06. 4:10 96% -
Di, 18.06. 4:00 97% 55 km
Di, 18.06. 3:50 97% -
Di, 18.06. 3:40 98% -
Di, 18.06. 3:30 99% 14 km
Di, 18.06. 3:00 99% 0.8 km
Di, 18.06. 2:30 98% 0.4 km
Di, 18.06. 2:00 98% 24 km
Di, 18.06. 1:30 99% 20 km
Ortszeit Niederschlagsmenge Niederschlagsart
Di, 18.06. 2:00 7 l/m2 in 6 Std. Regen
Mo, 17.06. 20:00 0.1 l/m2 in 12 Std. Regen
Mo, 17.06. 14:00 0.0 l/m2 in 6 Std. -
Mo, 17.06. 8:00 0.2 l/m2 in 12 Std. -
Mo, 17.06. 2:00 0.2 l/m2 in 6 Std. Regen
So, 16.06. 20:00 0.1 l/m2 in 12 Std. -
So, 16.06. 14:00 0.1 l/m2 in 6 Std. Regen
So, 16.06. 8:00 0.1 l/m2 in 12 Std. Regen
Ortszeit Niederschlagsmenge Niederschlagsart
Di, 18.06. 4:30 <0.05 l/m2 in 30 Min Schneeregen
Di, 18.06. 4:20 keine Meldung -
Di, 18.06. 4:10 keine Meldung -
Di, 18.06. 4:00 0.1 l/m2 in 1 Std. Regen
Di, 18.06. 3:50 keine Meldung -
Di, 18.06. 3:40 keine Meldung -
Di, 18.06. 3:30 <0.05 l/m2 in 30 Min -
Di, 18.06. 3:00 0.0 l/m2 in 1 Std. -
Di, 18.06. 2:30 0.0 l/m2 in 30 Min -
Di, 18.06. 2:00 <0.05 l/m2 in 1 Std. Regen
Di, 18.06. 1:30 <0.05 l/m2 in 30 Min -
Ortszeit Stärke Spitze Richtung
km/h Bft. km/h Grad Sektor
Di, 18.06. 2:00 4 1 36 120° SO
Mo, 17.06. 20:00 13 3 33 360° N
Mo, 17.06. 14:00 15 3 28 240° SW
Mo, 17.06. 8:00 6 1 11 140° SO
Mo, 17.06. 2:00 4 1 11 150° SO
So, 16.06. 20:00 7 2 32 220° SW
So, 16.06. 14:00 7 2 18 350° N
So, 16.06. 8:00 4 1 14 210° SW
Ortszeit Stärke Spitze Richtung
km/h Bft. km/h Grad Sektor
Di, 18.06. 4:30 9 2 19 320° NW
Di, 18.06. 4:20 9 2 - 320° NW
Di, 18.06. 4:10 11 2 - 300° NW
Di, 18.06. 4:00 6 1 20 200° S
Di, 18.06. 3:50 6 1 - 200° S
Di, 18.06. 3:40 11 2 - 140° SO
Di, 18.06. 3:30 9 2 20 40° NO
Di, 18.06. 3:00 2 1 9 320° NW
Di, 18.06. 2:30 4 1 7 340° N
Di, 18.06. 2:00 4 1 7 120° SO
Di, 18.06. 1:30 4 1 7 170° S
Ortszeit Untergrenze Bedeckung Gattung
total tief tief mittel hoch
Di, 18.06. 2:00 9000 m 2/8 0/8 - - -
Mo, 17.06. 20:00 960 m 8/8 7/8 - - -
Mo, 17.06. 14:00 5400 m 7/8 5/8 - - -
Mo, 17.06. 8:00 1800 m 8/8 2/8 - - -
Mo, 17.06. 2:00 4200 m 8/8 8/8 - - -
So, 16.06. 20:00 2700 m 7/8 7/8 - - -
So, 16.06. 14:00 1500 m 5/8 4/8 - - -
So, 16.06. 8:00 1470 m 8/8 8/8 - - -
Ortszeit Bedeckungsgrad in Achtel und Wolkenuntergrenze
Di, 18.06. 4:30 2(2100m) 5(4800m) 7(10500m)
Di, 18.06. 4:20 2(2100m) 5(4800m) 7(10500m)
Di, 18.06. 4:10 7
Di, 18.06. 4:00 5(3000m) 8(4800m) 8(5700m)
Di, 18.06. 3:50 5(3000m) 8(4800m) 8(5700m)
Di, 18.06. 3:40 8
Di, 18.06. 3:30 1(780m) 7(2700m) 8(3600m)
Di, 18.06. 3:00 2(2400m) 6(9000m) 7(10500m)
Di, 18.06. 2:30 1(3900m) 7(10500m)
Di, 18.06. 2:00 2(9000m)
Di, 18.06. 1:30 8(9000m)
Ortszeit Luftdruck NN (hPa) Tendenz (hPa in 3 Std.)
Di, 18.06. 2:00 1018 - 0,1
Mo, 17.06. 20:00 1016 + 1,1
Mo, 17.06. 14:00 1013 - 0,2
Mo, 17.06. 8:00 1015 + 0,5
Mo, 17.06. 2:00 1014 + 0,5
So, 16.06. 20:00 1010 + 0,7
So, 16.06. 14:00 1010 - 0,7
So, 16.06. 8:00 1013 + 0,4
Ortszeit Luftdruck NN (hPa) Tendenz (hPa in 3 Std.)
Di, 18.06. 4:30 1017 - 0,4
Di, 18.06. 4:20 1017 keine Meldung
Di, 18.06. 4:10 1017 keine Meldung
Di, 18.06. 4:00 1017 - 0,5
Di, 18.06. 3:50 1017 keine Meldung
Di, 18.06. 3:40 1017 keine Meldung
Di, 18.06. 3:30 1017 - 0,4
Di, 18.06. 3:00 1018 - 0,2
Di, 18.06. 2:30 1017 - 0,2
Di, 18.06. 2:00 1018 - 0,1
Di, 18.06. 1:30 1018 0,0
Ortszeit Schneehöhe (cm)
Di, 18.06. 2:00 0
Mo, 17.06. 20:00 0
Mo, 17.06. 14:00 0
Mo, 17.06. 8:00 0
Mo, 17.06. 2:00 0
So, 16.06. 20:00 0
So, 16.06. 14:00 0
So, 16.06. 8:00 0
Ortszeit Schneehöhe (cm)
Di, 18.06. 4:30 0
Di, 18.06. 4:20 0
Di, 18.06. 4:10 -
Di, 18.06. 4:00 0
Di, 18.06. 3:50 0
Di, 18.06. 3:40 -
Di, 18.06. 3:30 0
Di, 18.06. 3:00 0
Di, 18.06. 2:30 0
Di, 18.06. 2:00 0
Di, 18.06. 1:30 0
Link zu dieser Seite / Seite empfehlen

Das Wetter in ...